Date,TemperatureHighF,TemperatureAvgF,TemperatureLowF,DewpointHighF,DewpointAvgF,DewpointLowF,HumidityHigh,HumidityAvg,HumidityLow,PressureMaxIn,PressureMinIn,WindSpeedMaxMPH,WindSpeedAvgMPH,GustSpeedMaxMPH,PrecipitationSumIn
2013-1-1,41,34,28,35,31,27,96,87,73,30.54,30.39,7,1,7,0.00
2013-1-2,46,38,32,35,29,23,92,72,57,30.39,30.23,8,0,8,0.00
2013-1-3,44,36,30,36,28,22,96,74,45,30.24,30.13,15,1,15,0.28
2013-1-4,50,43,36,44,41,35,98,91,80,30.34,30.20,21,4,21,0.02
2013-1-5,44,43,41,40,37,33,95,80,66,30.24,30.15,15,2,16,0.08
2013-1-6,44,42,39,40,39,38,94,88,80,30.22,30.01,21,6,22,0.02
2013-1-7,50,46,40,47,43,39,96,90,83,30.19,29.82,40,8,40,0.06
2013-1-8,51,46,41,49,44,39,98,93,86,30.19,29.76,39,8,46,0.55
2013-1-9,49,40,35,48,38,34,97,94,85,29.98,29.70,30,4,35,0.95
2013-1-10,37,35,34,36,33,28,95,92,77,30.13,29.97,12,2,12,0.04
2013-1-11,36,32,28,29,27,22,96,83,67,30.37,30.15,7,1,11,0.00
2013-1-12,36,30,26,29,26,24,97,85,66,30.48,30.35,8,1,9,0.00
2013-1-13,36,30,25,30,26,24,97,87,67,30.53,30.48,5,1,5,0.01
2013-1-14,37,34,32,32,30,27,89,83,75,30.61,30.51,7,1,7,0.00
2013-1-15,44,37,33,36,32,30,91,82,68,30.74,30.60,8,0,8,0.00
2013-1-16,43,35,28,35,32,27,97,86,71,30.72,30.55,7,1,7,0.00
2013-1-17,38,34,28,36,32,27,97,95,90,30.56,30.33,5,0,5,0.00
2013-1-18,37,34,31,36,33,31,98,98,97,30.39,30.30,7,0,7,0.00
2013-1-19,35,33,31,34,33,31,98,98,97,30.43,30.38,5,0,6,0.00
2013-1-20,44,36,32,39,35,32,99,95,80,30.43,30.30,7,0,8,0.00
2013-1-21,37,33,31,36,33,30,98,97,94,30.32,30.17,8,1,8,0.00
2013-1-22,39,35,30,37,33,29,98,95,87,30.18,29.94,6,0,6,0.00
2013-1-23,42,40,38,40,37,33,96,88,73,30.17,29.88,18,3,18,0.32
2013-1-24,44,42,40,40,38,36,97,89,74,30.24,30.09,15,3,17,0.15
2013-1-25,51,45,42,45,42,38,98,89,73,30.09,29.96,21,4,21,0.06
2013-1-26,43,42,40,40,39,37,95,90,85,30.07,29.91,23,6,23,0.27
2013-1-27,41,40,39,39,38,36,95,91,87,30.09,30.02,21,5,21,0.02
2013-1-28,42,40,38,40,38,37,96,94,92,30.13,30.04,13,2,13,0.28
2013-1-29,46,44,41,45,43,40,97,95,91,30.37,30.12,23,3,23,0.36
2013-1-30,47,46,44,47,45,42,99,98,96,30.42,30.35,10,2,10,0.21
2013-1-31,48,46,45,46,45,44,99,95,86,30.43,30.33,24,4,24,0.09
2013-2-1,52,45,41,46,43,40,98,94,81,30.44,30.36,10,1,10,0.01
2013-2-2,43,40,38,41,39,37,98,96,90,30.42,30.29,10,1,10,0.00
2013-2-3,47,43,38,43,41,38,98,93,85,30.34,30.24,14,3,14,0.08
2013-2-4,50,46,44,43,42,41,94,87,76,30.24,29.92,13,2,13,0.00
2013-2-5,45,44,44,42,42,42,93,91,88,29.93,29.89,17,7,17,0.04
2013-2-6,44,44,44,42,42,42,92,92,92,29.89,29.89,9,9,14,0.04
2013-2-7,44,44,44,42,42,42,92,92,92,29.89,29.89,9,9,14,0.04
2013-2-8,44,44,44,42,42,42,92,92,92,29.89,29.89,9,9,14,0.04
2013-2-9,44,44,44,42,42,42,92,92,92,29.89,29.89,9,9,14,0.04
2013-2-10,44,44,44,42,42,42,92,92,92,29.89,29.89,9,9,14,0.04
2013-2-11,44,44,44,42,42,42,92,92,92,29.89,29.89,9,9,14,0.04
2013-2-12,44,44,44,42,42,42,92,92,92,29.89,29.89,9,9,14,0.04
2013-2-13,44,44,44,42,42,42,92,92,92,29.89,29.89,9,9,14,0.04
2013-2-14,44,44,44,42,42,42,92,92,92,29.89,29.89,9,9,14,0.04
2013-2-15,54,46,40,45,42,39,98,89,71,30.58,30.21,14,1,14,0.00
2013-2-16,52,44,40,44,42,37,98,90,65,30.23,30.14,24,4,24,0.15
2013-2-17,46,41,39,40,37,35,95,86,70,30.28,30.15,12,2,12,0.03
2013-2-18,44,42,38,38,37,35,95,84,72,30.15,29.80,17,2,17,0.00
2013-2-19,49,42,38,39,37,34,94,82,58,30.05,29.77,16,1,16,0.00
2013-2-20,43,40,37,39,37,35,95,90,80,30.08,30.03,18,2,18,0.11
2013-2-21,43,41,39,40,38,37,96,90,84,30.11,30.04,28,8,29,0.06
2013-2-22,46,42,37,42,38,33,94,88,78,30.08,29.72,42,11,42,0.10
2013-2-23,48,42,38,38,36,34,90,81,62,30.41,29.93,19,3,19,0.00
2013-2-24,46,44,40,38,36,34,86,75,63,30.41,29.98,35,8,35,0.00
2013-2-25,54,44,38,39,36,28,92,76,39,30.34,29.91,32,7,35,0.11
2013-2-26,46,42,38,36,34,32,89,74,58,30.38,30.23,21,5,22,0.01
2013-2-27,48,43,40,42,40,36,96,89,75,30.34,30.24,22,2,22,0.20
2013-2-28,52,46,42,50,45,41,98,96,93,30.36,30.22,25,4,26,0.23
2013-3-1,56,52,49,50,49,48,98,91,82,30.40,30.31,32,10,32,0.08
2013-3-2,55,49,38,49,45,36,95,86,75,30.31,30.10,24,6,24,0.19
2013-3-3,50,41,36,39,35,31,95,80,51,30.34,30.23,12,1,12,0.00
2013-3-4,52,42,32,38,31,26,91,68,40,30.34,29.96,10,1,10,0.00
2013-3-5,50,44,41,40,34,25,92,70,50,29.96,29.76,9,0,9,0.00
2013-3-6,42,41,40,41,39,38,96,93,87,29.93,29.61,18,3,18,0.68
2013-3-7,51,44,41,42,40,38,96,87,66,30.13,29.93,15,3,15,0.24
2013-3-8,51,43,37,42,38,36,97,84,63,30.28,30.11,13,1,13,0.01
2013-3-9,54,43,33,43,37,32,98,82,54,30.53,30.28,10,1,10,0.00
2013-3-10,47,43,39,41,39,36,94,88,69,30.53,30.47,6,1,6,0.01
2013-3-11,50,46,41,46,42,39,96,87,71,30.48,30.19,15,1,15,0.03
2013-3-12,54,50,48,50,48,46,98,91,77,30.19,30.10,30,12,30,0.02
2013-3-13,51,50,49,50,48,47,95,93,90,30.24,30.13,28,8,29,0.15
2013-3-14,52,50,47,48,46,44,97,87,76,30.18,30.06,23,5,23,0.01
2013-3-15,57,51,48,50,47,45,97,88,75,30.25,30.17,24,7,24,0.00
2013-3-16,49,46,38,45,41,35,91,85,69,30.17,29.91,40,8,40,0.01
2013-3-17,48,41,38,38,35,33,92,81,59,30.23,30.01,21,4,21,0.05
2013-3-18,50,41,39,39,37,35,91,84,62,30.24,30.13,33,8,33,0.00
2013-3-20,49,43,38,40,36,32,80,75,66,30.05,29.74,32,10,32,0.63
2013-3-21,47,39,35,37,34,32,94,83,63,30.26,30.05,21,4,21,0.04
2013-3-22,48,39,33,36,32,26,95,77,43,30.42,30.25,7,1,13,0.04
2013-3-23,51,41,34,33,30,24,88,67,36,30.44,30.34,11,2,11,0.00
2013-3-24,55,43,33,36,31,28,87,65,40,30.34,30.16,4,1,5,0.00
2013-3-25,60,49,39,37,30,26,69,48,30,30.17,29.97,11,1,11,0.00
2013-3-26,62,50,44,41,38,33,78,62,40,30.06,29.99,10,1,10,0.00
2013-3-27,58,49,45,47,42,35,91,76,56,30.03,29.97,6,0,6,0.04
2013-3-28,63,52,45,50,46,43,96,81,53,30.18,30.02,11,1,11,0.02
2013-3-29,65,53,45,48,45,42,95,75,47,30.28,30.18,11,1,11,0.01
2013-3-30,62,52,41,48,44,40,98,77,59,30.29,30.11,14,2,14,0.00
2013-3-31,66,56,45,47,43,40,83,63,45,30.11,29.95,11,1,12,0.00
2013-4-1,60,52,47,49,46,42,94,82,62,30.19,30.00,17,5,17,0.00
2013-4-2,56,51,48,47,45,44,88,80,70,30.23,30.19,18,4,18,0.00
2013-4-3,62,53,44,48,45,43,95,76,52,30.23,29.99,10,0,10,0.00
2013-4-4,56,51,48,53,48,44,97,90,82,29.99,29.68,24,3,25,0.46
2013-4-5,55,51,48,50,48,45,97,89,78,29.90,29.76,29,9,32,0.64
2013-4-6,51,47,44,47,44,41,95,88,79,29.96,29.73,30,9,30,0.45
2013-4-7,45,42,39,43,41,37,97,94,90,29.93,29.55,15,2,15,1.01
2013-4-8,57,47,42,46,42,40,96,84,61,30.31,29.93,13,2,13,0.05
2013-4-9,53,48,43,43,41,39,90,76,59,30.39,30.22,18,3,18,0.00
2013-4-10,57,51,47,50,45,42,96,81,65,30.29,29.98,27,5,28,0.23
2013-4-11,55,47,43,43,39,34,94,76,49,30.34,30.23,15,2,15,0.07
2013-4-12,45,43,40,43,39,36,96,86,73,30.23,29.71,27,6,30,0.18
2013-4-13,48,41,36,42,38,33,95,88,75,30.05,29.79,26,4,26,0.66
2013-4-14,54,44,38,43,37,30,96,78,43,30.05,29.96,11,1,11,0.05
2013-4-15,54,45,38,42,39,35,96,79,52,30.22,29.99,16,1,16,0.00
2013-4-16,57,46,37,43,38,30,97,75,42,30.43,30.22,14,1,14,0.00
2013-4-17,58,48,40,43,38,32,87,70,40,30.49,30.43,16,3,16,0.00
2013-4-18,50,46,43,47,42,38,95,85,75,30.49,30.24,29,6,29,0.15
2013-4-19,53,50,47,52,48,46,97,95,91,30.24,30.10,34,5,34,0.51
2013-4-20,56,48,46,49,45,43,96,89,70,30.32,30.23,15,3,15,0.25
2013-4-21,54,46,43,45,41,37,95,84,63,30.41,30.27,17,3,17,0.04
2013-4-22,57,49,39,42,34,19,94,61,24,30.57,30.41,18,2,18,0.00
2013-4-23,63,51,39,40,34,24,89,56,25,30.47,30.28,16,2,16,0.00
2013-4-24,69,56,42,44,37,31,88,52,26,30.36,30.09,14,1,14,0.00
2013-4-25,72,59,45,47,38,32,87,50,27,30.17,30.07,10,1,10,0.00
2013-4-26,67,54,46,51,46,42,96,76,52,30.29,30.17,13,2,13,0.00
2013-4-27,55,53,50,47,44,39,89,73,58,30.25,30.18,31,7,31,0.00
2013-4-28,58,50,46,48,44,40,94,81,57,30.26,29.98,25,5,26,0.00
2013-4-29,56,48,43,46,39,32,96,73,42,30.20,29.94,18,3,18,0.12
2013-4-30,56,46,37,39,34,29,90,66,41,30.48,30.20,13,1,13,0.06
2013-5-1,62,50,37,41,35,27,90,58,29,30.62,30.48,13,2,13,0.00
2013-5-2,66,55,45,44,39,33,76,56,41,30.59,30.41,19,2,19,0.00
2013-5-3,67,58,47,49,45,39,81,63,47,30.43,30.26,14,2,14,0.00
2013-5-4,73,62,52,50,45,36,77,54,30,30.27,30.03,19,3,19,0.00
2013-5-5,78,67,53,49,44,38,68,45,24,30.03,29.81,18,2,18,0.00
2013-5-6,84,70,55,50,46,42,68,45,23,29.88,29.78,15,1,15,0.00
2013-5-7,71,58,50,54,50,48,92,76,54,30.04,29.85,18,4,18,0.00
2013-5-8,65,55,50,52,49,47,91,81,61,30.18,30.04,15,3,15,0.00
2013-5-9,70,56,48,55,50,47,97,82,46,30.26,30.16,8,0,8,0.00
2013-5-10,80,62,48,56,50,46,97,69,35,30.25,30.15,9,0,9,0.00
2013-5-11,80,64,53,53,49,44,86,62,36,30.21,30.02,13,2,14,0.00
2013-5-12,69,62,57,57,55,51,92,79,62,30.13,30.05,19,6,19,0.11
2013-5-13,61,56,48,55,50,41,92,82,61,30.22,29.97,39,8,39,0.37
2013-5-14,67,55,47,45,42,38,86,65,37,30.26,30.15,12,2,15,0.00
2013-5-15,66,54,46,51,46,39,94,76,43,30.16,30.05,16,2,18,0.04
2013-5-16,70,59,52,54,51,47,94,75,46,30.06,29.90,13,2,13,0.00
2013-5-17,63,56,52,50,48,44,90,76,56,30.10,29.98,20,6,20,0.00
2013-5-18,62,55,50,48,46,44,89,73,56,30.31,30.10,15,3,15,0.00
2013-5-19,65,56,49,51,48,45,87,74,54,30.44,30.31,11,1,11,0.00
2013-5-20,68,54,46,51,47,44,93,77,46,30.39,29.94,16,2,16,0.00
2013-5-21,56,49,45,49,45,43,94,87,68,29.95,29.82,17,3,17,0.46
2013-5-22,53,48,44,47,44,42,95,89,75,29.98,29.89,17,3,18,0.06
2013-5-23,56,48,44,47,44,41,94,84,62,30.06,29.97,22,3,23,0.06
2013-5-24,62,53,45,49,45,42,95,77,50,30.09,30.01,17,3,17,0.01
2013-5-25,63,54,50,49,46,42,89,75,50,30.08,30.00,16,3,16,0.00
2013-5-26,63,54,49,54,50,47,95,85,68,30.03,29.98,17,3,17,0.10
2013-5-27,58,55,52,55,52,48,94,90,84,30.01,29.75,18,3,18,0.42
2013-5-28,60,55,51,52,49,46,92,81,69,29.92,29.81,21,6,21,0.02
2013-5-29,59,53,49,52,48,47,96,84,68,30.00,29.73,21,2,21,0.14
2013-5-30,61,54,49,48,46,45,88,77,60,30.28,30.00,23,7,23,0.00
2013-5-31,69,57,50,49,46,40,90,68,38,30.38,30.28,11,1,11,0.00
2013-6-1,72,59,50,51,47,41,86,64,38,30.29,30.09,18,2,19,0.00
2013-6-2,71,61,52,52,50,45,90,67,46,30.13,30.08,16,1,17,0.01
2013-6-3,73,59,50,55,51,49,95,76,48,30.17,30.09,11,2,11,0.00
2013-6-4,76,64,51,55,50,44,91,63,41,30.17,30.06,14,1,14,0.00
2013-6-5,76,65,54,58,52,46,80,65,46,30.13,30.07,14,1,14,0.00
2013-6-6,80,63,52,54,50,42,94,64,29,30.09,30.04,11,0,11,0.00
2013-6-7,66,60,55,56,49,42,81,68,50,30.19,30.06,17,3,17,0.00
2013-6-8,70,59,53,51,48,46,80,68,50,30.23,30.14,10,1,10,0.00
2013-6-9,69,57,51,50,47,44,86,70,46,30.16,30.06,14,1,14,0.00
2013-6-10,71,59,48,50,47,44,85,66,40,30.08,29.92,10,1,11,0.00
2013-6-11,64,56,51,53,47,44,88,72,52,30.14,29.98,23,6,24,0.25
2013-6-12,67,57,51,50,47,43,85,70,45,30.18,30.14,19,5,19,0.00
2013-6-13,70,59,52,51,49,46,88,71,47,30.26,30.17,11,1,11,0.00
2013-6-14,67,58,53,50,48,46,86,71,52,30.27,30.09,16,4,18,0.00
2013-6-15,71,61,50,54,51,48,94,71,46,30.09,29.96,11,1,11,0.00
2013-6-16,73,62,54,57,53,50,92,72,55,30.12,30.03,16,3,16,0.00
2013-6-17,76,64,56,54,51,46,87,67,37,30.13,29.93,20,3,20,0.01
2013-6-18,73,62,55,54,49,41,91,65,34,30.01,29.91,18,4,18,0.00
2013-6-19,68,59,54,53,50,47,88,73,51,30.05,29.95,13,3,13,0.00
2013-6-20,60,55,52,55,51,49,96,86,73,30.15,29.99,16,3,16,0.50
2013-6-21,69,59,52,55,51,48,97,77,49,30.20,30.14,10,1,10,0.03
2013-6-22,78,65,52,56,52,46,95,66,38,30.16,29.89,11,1,11,0.00
2013-6-23,71,64,58,62,56,51,95,77,64,29.89,29.63,6,0,6,0.23
2013-6-24,67,61,55,59,55,53,96,82,61,29.74,29.61,22,5,26,0.09
2013-6-25,74,62,56,58,56,53,96,83,50,29.89,29.71,26,3,27,0.54
2013-6-26,69,62,57,61,57,55,95,83,66,30.11,29.88,12,2,16,0.07
2013-6-27,70,64,60,62,60,55,96,86,74,30.24,30.08,8,1,9,0.14
2013-6-28,87,72,58,65,61,57,96,72,40,30.23,30.07,13,1,13,0.00
2013-6-29,86,72,63,65,61,58,91,70,48,30.14,30.02,11,1,11,0.00
2013-6-30,90,75,58,65,61,54,88,63,40,30.05,29.88,10,1,12,0.00
2013-7-1,89,76,62,65,61,58,88,62,44,30.05,29.94,5,0,7,0.00
2013-7-2,80,70,59,62,56,51,90,63,40,30.15,30.05,14,1,14,0.00
2013-7-3,76,66,59,55,50,44,74,57,39,30.19,30.08,12,1,13,0.00
2013-7-4,72,62,56,54,52,50,87,72,51,30.17,30.06,14,2,14,0.00
2013-7-5,73,64,55,56,54,51,93,72,55,30.08,29.99,11,2,14,0.00
2013-7-6,77,66,55,57,54,48,95,68,38,30.02,29.90,11,1,11,0.00
2013-7-7,75,64,56,60,56,52,94,77,58,29.99,29.91,13,2,13,0.00
2013-7-8,80,64,55,60,55,52,91,74,44,30.14,29.98,13,3,13,0.00
2013-7-9,81,68,55,59,55,51,95,65,42,30.15,30.03,12,1,12,0.00
2013-7-10,72,62,56,57,53,50,91,75,58,30.11,29.99,14,2,14,0.00
2013-7-11,71,60,54,51,49,47,79,68,47,30.13,30.03,11,2,11,0.00
2013-7-12,68,59,53,54,50,47,81,72,58,30.15,30.05,9,1,10,0.00
2013-7-13,75,64,52,53,48,45,84,60,36,30.24,30.15,16,1,16,0.00
2013-7-14,81,67,51,54,49,43,89,55,27,30.18,30.02,18,1,18,0.00
2013-7-15,76,67,55,54,49,44,82,55,35,30.09,29.93,19,2,20,0.00
2013-7-16,83,72,62,57,50,44,65,46,34,29.94,29.83,17,2,17,0.00
2013-7-17,71,64,60,56,55,52,85,72,53,30.23,29.91,20,5,20,0.02
2013-7-18,78,65,57,58,56,53,88,72,50,30.27,30.16,9,0,9,0.00
2013-7-19,79,65,55,60,56,52,93,75,51,30.21,30.07,10,0,10,0.00
2013-7-20,76,62,54,60,56,52,96,82,56,30.13,30.00,13,1,13,0.00
2013-7-21,77,62,54,60,56,52,97,82,56,30.03,29.94,12,2,12,0.00
2013-7-22,79,64,55,60,56,53,97,78,48,30.11,29.98,11,2,12,0.00
2013-7-23,81,67,53,60,54,46,96,67,30,30.11,30.00,13,1,15,0.00
2013-7-24,82,70,54,58,52,45,92,58,29,30.09,30.02,12,1,12,0.00
2013-7-25,85,69,53,57,53,49,93,60,30,30.14,30.06,11,1,11,0.00
2013-7-26,84,69,53,56,51,44,91,56,30,30.19,30.10,11,1,11,0.00
2013-7-27,78,64,55,54,51,47,87,65,36,30.20,30.03,13,1,13,0.00
2013-7-28,66,59,52,55,52,50,94,80,65,30.07,29.99,18,5,18,0.00
2013-7-29,77,64,55,57,53,51,88,71,48,30.05,29.98,11,2,11,0.00
2013-7-30,75,63,54,58,55,52,93,77,51,30.17,30.04,13,3,13,0.00
2013-7-31,69,60,55,61,56,52,97,87,70,30.17,30.03,11,1,11,0.00
2013-8-1,66,60,54,56,54,52,94,83,69,30.10,30.07,19,5,19,0.00
2013-8-2,60,59,57,58,56,54,96,90,84,30.17,30.09,18,3,18,0.15
2013-8-3,74,64,57,60,57,55,97,82,58,30.17,30.09,11,1,11,0.00
2013-8-4,79,67,54,61,57,53,96,73,52,30.10,29.98,11,1,11,0.00
2013-8-5,85,70,56,60,58,54,95,67,38,30.05,29.96,10,0,10,0.00
2013-8-6,86,69,54,59,54,48,92,63,30,30.05,29.94,10,0,10,0.00
2013-8-7,86,68,54,59,55,51,95,66,32,30.05,29.98,12,1,12,0.00
2013-8-8,82,66,57,60,56,53,94,73,47,30.08,29.97,11,2,12,0.00
2013-8-9,81,68,55,58,56,52,94,67,42,29.99,29.87,11,0,11,0.00
2013-8-10,77,65,58,63,59,56,95,83,59,30.05,29.93,16,2,16,0.12
2013-8-11,76,63,56,58,55,53,90,75,52,30.11,30.02,12,2,12,0.00
2013-8-12,76,65,57,58,55,54,90,73,47,30.11,30.04,13,2,13,0.00
2013-8-13,81,67,57,57,55,53,91,68,39,30.14,29.96,11,1,11,0.00
2013-8-14,78,66,55,62,57,52,92,74,46,30.00,29.94,16,2,23,0.01
2013-8-15,69,65,60,65,62,59,96,91,83,30.03,29.96,12,1,12,0.04
2013-8-16,82,69,59,65,59,47,98,75,30,30.04,29.97,13,1,13,0.00
2013-8-17,77,67,61,61,58,54,84,71,57,30.11,30.04,16,4,16,0.00
2013-8-18,76,65,58,60,57,54,90,76,56,30.16,30.11,17,3,17,0.00
2013-8-23,73,72,71,58,57,56,62,59,57,29.92,29.91,20,9,20,0.00
2013-8-24,76,66,60,57,55,52,86,69,48,29.95,29.89,13,2,14,0.00
2013-8-25,74,64,56,58,54,52,87,70,50,29.98,29.90,7,0,7,0.00
2013-8-26,64,62,59,58,54,51,86,75,66,29.94,29.91,9,1,9,0.01
2013-9-9,74,67,59,60,59,57,93,77,61,30.03,30.01,12,1,12,0.00
2013-9-10,74,65,55,63,59,54,98,81,65,30.04,29.92,10,1,10,0.00
2013-9-11,84,68,59,62,58,55,92,71,48,29.97,29.90,8,1,10,0.00
2013-9-12,80,66,58,64,59,57,97,82,56,30.03,29.93,8,1,8,0.00
2013-9-13,65,61,58,61,59,56,98,92,85,30.01,29.91,8,1,8,0.00
2013-9-14,70,62,58,62,59,56,96,89,72,29.92,29.77,7,0,7,0.00
2013-9-15,64,59,55,61,58,54,98,95,89,29.86,29.75,16,2,16,0.19
2013-9-16,68,61,57,60,57,53,93,88,75,29.97,29.84,16,4,21,0.00
2013-9-17,63,59,56,55,53,51,89,81,68,29.98,29.91,7,0,7,0.00
2013-9-18,68,59,53,54,52,48,94,78,53,30.12,29.98,13,2,14,0.00
2013-9-19,78,64,50,54,50,46,94,64,34,30.08,29.80,9,0,9,0.00
2013-9-20,73,63,57,56,52,47,92,69,52,29.79,29.63,20,3,21,0.09
2013-9-21,70,60,55,57,54,52,94,81,57,29.76,29.68,16,3,16,0.00
2013-9-22,60,57,54,55,53,49,94,85,68,29.77,29.60,30,8,31,0.27
2013-9-23,60,56,53,54,52,47,93,86,76,30.00,29.77,28,6,28,0.26
2013-9-24,63,54,49,51,49,46,95,83,59,30.00,29.87,16,3,16,0.04
2013-9-25,61,52,49,51,48,45,96,86,64,30.07,29.90,14,1,14,0.06
2013-9-26,63,53,46,51,48,45,97,83,62,30.17,30.07,8,1,8,0.00
2013-9-27,56,54,51,52,50,47,92,87,81,30.16,29.88,26,6,26,0.09
2013-9-28,60,55,52,58,53,49,97,93,87,29.89,29.37,32,7,33,1.35
2013-9-29,56,53,52,52,49,47,94,87,79,29.59,29.19,36,8,37,0.64
2013-9-30,52,51,50,47,45,44,84,80,74,29.49,29.45,37,14,37,0.00
2013-10-4,64,56,50,49,47,42,92,71,51,30.45,30.38,7,1,7,0.01
2013-10-5,68,56,46,52,48,44,96,76,44,30.40,30.16,9,1,9,0.00
2013-10-6,71,58,48,53,48,42,98,74,41,30.17,29.91,22,3,22,0.04
2013-10-7,60,54,52,51,49,45,94,83,60,30.04,29.92,26,8,27,0.06
2013-10-8,56,51,47,49,46,42,93,84,61,30.11,30.00,16,2,16,0.11
2013-10-9,60,49,41,47,44,40,97,82,61,30.17,29.99,10,1,10,0.00
2013-10-10,58,52,47,50,47,44,94,85,67,30.11,29.97,9,1,9,0.01
2013-10-11,55,51,48,50,48,46,96,91,78,30.18,30.10,6,0,6,0.10
2013-10-12,56,50,47,50,47,45,96,90,76,30.25,30.10,14,1,14,0.03
2013-10-13,59,50,44,48,46,43,97,87,61,30.40,30.25,7,0,7,0.01
2013-10-14,60,48,40,49,44,39,98,87,61,30.47,30.40,6,0,7,0.01
2013-10-15,61,50,44,50,46,43,97,89,66,30.43,30.21,7,0,7,0.00
2013-10-16,55,50,46,49,47,45,96,90,80,30.24,30.19,10,1,11,0.00
2013-10-17,59,51,47,50,47,45,95,89,70,30.32,30.24,7,0,7,0.00
2013-10-18,54,48,43,50,46,42,98,94,84,30.28,30.19,6,0,6,0.01
2013-10-19,48,46,43,48,46,42,98,97,95,30.24,30.18,5,0,5,0.02
2013-10-20,49,47,45,47,46,44,97,96,92,30.25,30.19,5,0,5,0.00
2013-10-21,51,48,46,49,47,45,98,96,91,30.21,30.14,6,0,6,0.00
2013-10-22,55,48,45,50,47,44,98,96,85,30.16,30.07,5,0,5,0.01
2013-10-23,58,48,44,53,46,43,99,95,76,30.09,30.02,5,0,5,0.01
2013-10-24,49,46,43,48,46,42,98,98,97,30.17,30.06,4,0,4,0.01
2013-10-25,52,48,46,49,47,46,98,96,89,30.36,30.17,7,1,7,0.02
2013-10-26,54,50,47,48,46,45,97,88,80,30.37,30.23,10,1,11,0.00
2013-10-27,55,50,46,48,46,43,98,86,71,30.24,29.93,22,3,22,0.21
2013-10-28,56,51,46,45,37,32,91,60,44,29.99,29.92,19,3,19,0.00
2013-10-29,59,47,39,42,38,35,92,71,44,30.07,29.98,9,1,9,0.00
2013-10-30,55,48,41,46,41,37,92,78,65,30.16,30.06,25,4,25,0.02
2013-10-31,54,51,48,50,47,43,93,88,75,30.29,30.13,26,4,26,0.00
2013-11-1,60,54,51,51,49,47,95,84,65,30.31,29.88,9,1,9,0.00
2013-11-2,54,50,44,50,45,38,97,83,64,29.92,29.51,50,8,51,0.47
2013-11-3,53,45,41,43,40,38,94,84,62,30.15,29.92,13,1,13,0.01
2013-11-4,48,43,38,41,38,33,97,82,56,30.23,30.09,6,1,6,0.06
2013-11-5,50,46,43,48,44,40,97,94,88,30.30,30.05,17,1,17,0.02
2013-11-6,52,47,43,46,44,42,96,90,76,30.36,30.06,8,0,8,0.07
2013-11-7,50,48,47,48,46,44,96,92,82,30.06,29.75,34,7,34,0.75
2013-11-8,54,49,46,46,44,43,90,83,71,30.19,30.00,14,4,20,0.00
2013-11-9,51,46,41,44,42,39,97,90,74,30.19,30.11,8,0,8,0.08
2013-11-10,48,46,44,45,44,43,97,93,88,30.19,30.13,12,2,12,0.04
2013-11-11,59,49,44,48,44,42,94,84,65,30.20,30.04,10,1,10,0.00
2013-11-12,58,52,48,53,49,43,97,88,70,30.39,30.06,23,5,23,0.13
2013-11-13,54,52,48,50,48,46,93,88,81,30.47,30.34,29,4,29,0.00
2013-11-14,49,47,44,47,45,42,97,95,91,30.34,30.09,9,0,9,0.04
2013-11-15,48,45,42,46,42,39,97,92,86,30.10,29.36,42,7,42,0.12
2013-11-16,47,44,40,44,39,36,97,83,70,29.81,29.38,20,4,20,0.00
2013-11-17,50,46,42,46,43,38,92,88,82,29.93,29.81,31,10,31,0.00
2013-11-18,52,49,47,50,47,44,97,94,87,29.93,29.59,24,5,24,0.68
2013-11-19,52,43,37,51,37,23,96,80,50,30.11,29.58,28,3,30,0.17
2013-11-20,42,37,33,31,28,24,84,70,51,30.55,30.11,13,2,13,0.00
2013-11-21,43,35,30,29,27,24,87,72,54,30.71,30.55,9,1,9,0.00
2013-11-22,44,37,30,32,29,26,87,73,55,30.69,30.49,11,2,11,0.00
2013-11-23,50,41,35,39,33,26,85,74,59,30.49,30.24,12,1,12,0.00
2013-11-24,50,42,36,42,37,33,93,85,72,30.29,30.20,6,0,6,0.00
2013-11-25,54,42,36,43,38,35,98,88,58,30.36,30.29,5,0,5,0.00
2013-11-26,52,44,36,42,38,36,98,82,59,30.31,30.13,7,1,7,0.01
2013-11-27,55,46,41,46,40,36,90,78,60,30.14,30.00,8,0,8,0.00
2013-11-28,49,41,36,46,40,35,98,95,86,30.22,30.06,6,1,6,0.01
2013-11-29,47,44,40,45,42,39,97,93,88,30.35,30.21,10,1,10,0.00
2013-11-30,49,48,45,47,44,43,95,89,82,30.37,30.12,27,7,27,0.04
2013-12-1,53,50,42,51,47,38,97,90,84,30.12,29.77,35,9,35,0.01
2013-12-2,44,39,35,38,34,30,95,83,61,30.10,29.84,15,2,15,0.07
2013-12-3,38,34,30,30,25,22,85,70,53,30.35,30.10,18,2,18,0.00
2013-12-4,38,31,26,28,25,20,92,78,64,30.40,30.33,7,1,7,0.00
2013-12-5,33,28,26,25,21,13,93,75,52,30.36,30.23,9,1,9,0.00
2013-12-6,32,27,22,15,10,6,61,49,37,30.28,30.18,11,2,11,0.00
2013-12-7,29,23,19,13,7,1,71,51,32,30.47,30.27,11,2,11,0.00
2013-12-8,33,26,20,20,16,11,77,67,52,30.62,30.46,6,1,6,0.00
2013-12-9,33,29,24,28,22,16,86,75,65,30.63,30.53,5,1,7,0.00
2013-12-10,38,35,32,34,31,27,90,86,81,30.54,30.46,8,1,8,0.00
2013-12-11,39,35,31,36,33,29,95,90,83,30.46,30.21,4,0,4,0.00
2013-12-12,41,38,34,40,36,32,97,91,77,30.21,30.09,17,3,18,0.13
2013-12-13,47,45,41,45,43,40,97,95,91,30.46,30.17,17,4,17,0.01
2013-12-14,48,46,44,44,43,42,94,90,86,30.48,30.35,18,4,18,0.00
2013-12-15,49,47,45,48,46,43,97,94,87,30.49,30.35,25,5,25,0.06
2013-12-16,49,44,39,45,42,38,98,95,85,30.53,30.31,5,0,5,0.01
2013-12-17,43,41,39,42,40,39,98,96,91,30.31,30.15,16,2,16,0.00
2013-12-18,43,41,36,41,36,31,96,85,64,30.20,30.06,16,2,16,0.05
2013-12-19,40,35,32,35,26,22,91,69,54,30.39,30.19,14,1,14,0.00
2013-12-20,43,36,31,42,34,25,98,91,70,30.24,29.75,21,4,35,0.24
2013-12-21,44,41,39,43,41,38,98,98,97,30.20,29.89,8,1,8,0.18
2013-12-22,48,46,43,48,46,43,99,98,95,30.33,30.19,27,3,27,0.27
2013-12-23,52,48,42,48,45,39,97,90,77,30.55,30.16,38,8,38,0.00
2013-12-24,47,41,36,41,38,35,97,90,76,30.66,30.55,8,1,8,0.00
2013-12-25,41,35,31,38,34,30,98,94,80,30.57,30.43,5,1,5,0.01
2013-12-26,43,37,34,40,36,33,98,96,87,30.45,30.24,5,0,5,0.01
2013-12-27,44,40,35,43,40,35,99,96,88,30.41,30.16,21,1,21,0.04
2013-12-28,47,43,36,44,42,35,98,96,84,30.57,30.41,5,0,5,0.01
2013-12-29,42,39,35,40,38,35,98,96,93,30.52,30.35,6,1,6,0.01
2013-12-30,43,41,38,41,40,38,98,96,91,30.36,30.17,15,1,15,0.00
2013-12-31,44,43,41,43,42,40,98,95,86,30.42,30.23,11,1,11,0.01
2014-1-1,44,41,38,42,40,37,99,97,92,30.45,30.29,5,0,5,0.01
2014-1-2,49,45,41,45,42,40,98,91,75,30.29,29.93,27,5,29,0.41